Time,TemperatureF,DewpointF,PressureIn,WindDirection,WindDirectionDegrees,WindSpeedMPH,WindSpeedGustMPH,Humidity,HourlyPrecipIn,Conditions,Clouds,dailyrainin,SoftwareType,DateUTC
2013-03-07 00:01:00,42.8,38.9,29.90,ESE,120,0.0,0.0,86,0.00,,OVC055,0.00,VWS V14.01,2013-03-07 08:01:00,
2013-03-07 00:06:00,42.8,39.2,29.90,ESE,119,0.0,0.0,87,0.00,,OVC055,0.00,VWS V14.01,2013-03-07 08:06:00,
2013-03-07 00:11:00,42.8,39.2,29.90,ESE,120,0.0,0.0,87,0.00,,OVC055,0.00,VWS V14.01,2013-03-07 08:11:00,
2013-03-07 00:17:00,43.0,39.7,29.90,ESE,120,0.0,0.0,88,0.00,,OVC055,0.00,VWS V14.01,2013-03-07 08:17:00,
2013-03-07 00:23:00,42.8,39.5,29.90,ESE,119,0.0,0.0,88,0.00,,OVC055,0.00,VWS V14.01,2013-03-07 08:23:00,
2013-03-07 00:28:00,42.8,39.2,29.90,ESE,120,0.0,0.0,87,0.00,,OVC055,0.00,VWS V14.01,2013-03-07 08:28:00,
2013-03-07 00:33:00,43.0,39.4,29.90,ESE,120,0.0,0.0,87,0.00,,OVC055,0.00,VWS V14.01,2013-03-07 08:33:00,
2013-03-07 00:38:00,42.8,39.2,29.90,ESE,119,0.0,0.0,87,0.00,,OVC055,0.00,VWS V14.01,2013-03-07 08:38:00,
2013-03-07 00:43:00,43.0,39.4,29.90,ESE,119,0.0,0.0,87,0.00,,OVC055,0.00,VWS V14.01,2013-03-07 08:43:00,
2013-03-07 00:48:00,42.8,39.2,29.90,ESE,120,0.0,0.0,87,0.00,,OVC055,0.00,VWS V14.01,2013-03-07 08:48:00,
2013-03-07 00:53:00,42.6,39.0,29.90,ESE,119,0.0,0.0,87,0.00,,OVC055,0.00,VWS V14.01,2013-03-07 08:53:00,
2013-03-07 00:58:00,42.1,38.2,29.90,ESE,119,0.0,0.0,86,0.00,,OVC055,0.00,VWS V14.01,2013-03-07 08:58:00,
2013-03-07 01:03:00,42.1,38.2,29.90,ESE,120,0.0,0.0,86,0.00,,OVC095,0.00,VWS V14.01,2013-03-07 09:03:00,
2013-03-07 01:09:00,41.4,37.5,29.90,ESE,120,3.1,3.6,86,0.00,,OVC095,0.00,VWS V14.01,2013-03-07 09:09:00,
2013-03-07 01:14:00,41.2,37.6,29.90,ESE,119,3.1,3.1,87,0.00,,OVC095,0.00,VWS V14.01,2013-03-07 09:14:00,
2013-03-07 01:19:00,41.0,37.4,29.90,ESE,119,4.5,4.9,87,0.00,,OVC095,0.00,VWS V14.01,2013-03-07 09:19:00,
2013-03-07 01:24:00,40.8,37.5,29.90,ESE,119,4.0,4.5,88,0.00,,OVC095,0.00,VWS V14.01,2013-03-07 09:24:00,
2013-03-07 01:29:00,40.3,36.7,29.90,ESE,119,4.0,4.5,87,0.00,,OVC095,0.00,VWS V14.01,2013-03-07 09:29:00,
2013-03-07 01:34:00,39.9,36.4,29.90,ESE,120,0.0,0.0,87,0.00,,OVC095,0.00,VWS V14.01,2013-03-07 09:34:00,
2013-03-07 01:39:00,39.6,36.0,29.90,ESE,120,0.0,0.0,87,0.00,,OVC095,0.00,VWS V14.01,2013-03-07 09:39:00,
2013-03-07 01:44:00,39.2,35.7,29.90,ESE,120,3.6,3.6,87,0.00,,OVC095,0.00,VWS V14.01,2013-03-07 09:44:00,
2013-03-07 01:49:00,39.2,36.0,29.90,ESE,119,4.5,5.4,88,0.00,,OVC095,0.00,VWS V14.01,2013-03-07 09:49:00,
2013-03-07 01:54:00,39.7,37.0,29.90,ESE,119,0.0,0.0,90,0.00,,OVC095,0.00,VWS V14.01,2013-03-07 09:54:00,
2013-03-07 02:00:00,38.8,35.9,29.90,ESE,119,4.0,4.0,89,0.00,,OVC095,0.00,VWS V14.01,2013-03-07 10:00:00,
2013-03-07 02:05:00,39.2,36.5,29.90,ESE,119,3.1,4.5,90,0.00,,OVC090,0.00,VWS V14.01,2013-03-07 10:05:00,
2013-03-07 02:10:00,39.4,37.0,29.90,ESE,119,3.1,3.6,91,0.00,,OVC090,0.00,VWS V14.01,2013-03-07 10:10:00,
2013-03-07 02:16:00,39.4,37.0,29.87,ESE,119,0.0,0.0,91,0.00,,OVC090,0.00,VWS V14.01,2013-03-07 10:16:00,
2013-03-07 02:21:00,38.5,35.8,29.87,ESE,119,0.0,0.0,90,0.00,,OVC090,0.00,VWS V14.01,2013-03-07 10:21:00,
2013-03-07 02:26:00,37.8,34.5,29.87,ESE,119,4.5,4.9,88,0.00,,OVC090,0.00,VWS V14.01,2013-03-07 10:26:00,
2013-03-07 02:31:00,37.8,34.8,29.87,ESE,119,4.0,4.9,89,0.00,,OVC090,0.00,VWS V14.01,2013-03-07 10:31:00,
2013-03-07 02:36:00,37.9,35.3,29.87,ESE,119,4.9,5.4,90,0.00,,OVC090,0.00,VWS V14.01,2013-03-07 10:36:00,
2013-03-07 02:41:00,37.8,35.4,29.87,ESE,120,3.6,4.0,91,0.00,,OVC090,0.00,VWS V14.01,2013-03-07 10:41:00,
2013-03-07 02:46:00,37.8,35.4,29.87,ESE,120,0.0,2.7,91,0.00,,OVC090,0.00,VWS V14.01,2013-03-07 10:46:00,
2013-03-07 02:51:00,37.6,35.2,29.87,ESE,119,0.0,0.0,91,0.00,,OVC090,0.00,VWS V14.01,2013-03-07 10:51:00,
2013-03-07 02:56:00,37.8,35.7,29.87,ESE,119,2.7,3.1,92,0.00,,OVC090,0.00,VWS V14.01,2013-03-07 10:56:00,
2013-03-07 03:01:00,37.8,35.7,29.87,ESE,120,3.1,4.0,92,0.00,,OVC090,0.00,VWS V14.01,2013-03-07 11:01:00,
2013-03-07 03:06:00,37.4,35.3,29.87,ESE,119,0.0,2.7,92,0.00,,SCT070,0.00,VWS V14.01,2013-03-07 11:06:00,
2013-03-07 03:12:00,37.2,35.1,29.87,ESE,119,0.0,0.0,92,0.00,,SCT070,0.00,VWS V14.01,2013-03-07 11:12:00,
2013-03-07 03:17:00,37.0,34.9,29.87,ESE,119,0.0,0.0,92,0.00,,SCT070,0.00,VWS V14.01,2013-03-07 11:17:00,
2013-03-07 03:23:00,37.0,34.9,29.87,ESE,119,4.0,4.0,92,0.00,,SCT070,0.00,VWS V14.01,2013-03-07 11:23:00,
2013-03-07 03:29:00,36.7,34.6,29.87,ESE,119,3.6,4.5,92,0.00,,SCT070,0.00,VWS V14.01,2013-03-07 11:29:00,
2013-03-07 03:34:00,36.7,34.6,29.87,ESE,120,3.6,4.0,92,0.00,,SCT070,0.00,VWS V14.01,2013-03-07 11:34:00,
2013-03-07 03:39:00,36.3,34.5,29.87,ESE,120,2.7,3.1,93,0.00,,SCT070,0.00,VWS V14.01,2013-03-07 11:39:00,
2013-03-07 03:44:00,36.7,34.8,29.87,ESE,119,0.0,0.0,93,0.00,,SCT070,0.00,VWS V14.01,2013-03-07 11:44:00,
2013-03-07 03:49:00,36.7,34.8,29.87,ESE,119,0.0,0.0,93,0.00,,SCT070,0.00,VWS V14.01,2013-03-07 11:49:00,
2013-03-07 03:54:00,36.3,34.5,29.87,ESE,119,0.0,0.0,93,0.00,,SCT070,0.00,VWS V14.01,2013-03-07 11:54:00,
2013-03-07 03:59:00,36.5,34.7,29.87,ESE,120,3.1,4.0,93,0.00,,SCT070,0.00,VWS V14.01,2013-03-07 11:59:00,
2013-03-07 04:04:00,36.1,34.3,29.87,ESE,119,3.1,3.6,93,0.00,,CLR,0.00,VWS V14.01,2013-03-07 12:04:00,
2013-03-07 04:09:00,36.1,34.6,29.87,ESE,119,3.6,4.0,94,0.00,,CLR,0.00,VWS V14.01,2013-03-07 12:09:00,
2013-03-07 04:15:00,36.3,34.8,29.87,ESE,119,3.1,4.0,94,0.00,,CLR,0.00,VWS V14.01,2013-03-07 12:15:00,
2013-03-07 04:21:00,36.1,34.6,29.87,ESE,119,0.0,0.0,94,0.00,,CLR,0.00,VWS V14.01,2013-03-07 12:21:00,
2013-03-07 04:26:00,36.3,34.8,29.87,ESE,119,0.0,3.6,94,0.00,,CLR,0.00,VWS V14.01,2013-03-07 12:26:00,
2013-03-07 04:31:00,36.3,34.8,29.87,ESE,119,0.0,0.0,94,0.00,,CLR,0.00,VWS V14.01,2013-03-07 12:31:00,
2013-03-07 04:36:00,36.3,35.0,29.87,ESE,119,3.6,3.6,95,0.00,,CLR,0.00,VWS V14.01,2013-03-07 12:36:00,
2013-03-07 04:41:00,36.7,35.4,29.87,ESE,119,3.1,3.1,95,0.00,,CLR,0.00,VWS V14.01,2013-03-07 12:41:00,
2013-03-07 04:46:00,36.1,34.8,29.87,ESE,119,0.0,0.0,95,0.00,,CLR,0.00,VWS V14.01,2013-03-07 12:46:00,
2013-03-07 04:52:00,35.8,34.2,29.87,ESE,119,0.0,0.0,94,0.00,,CLR,0.00,VWS V14.01,2013-03-07 12:52:00,
2013-03-07 04:57:00,35.8,34.2,29.87,ESE,119,0.0,0.0,94,0.00,,CLR,0.00,VWS V14.01,2013-03-07 12:57:00,
2013-03-07 05:02:00,35.8,34.2,29.87,ESE,119,0.0,0.0,94,0.00,,CLR,0.00,VWS V14.01,2013-03-07 13:02:00,
2013-03-07 05:07:00,35.8,34.5,29.87,ESE,120,3.6,3.6,95,0.00,,CLR,0.00,VWS V14.01,2013-03-07 13:07:00,
2013-03-07 05:12:00,35.4,33.9,29.87,ESE,119,3.6,4.5,94,0.00,,CLR,0.00,VWS V14.01,2013-03-07 13:12:00,
2013-03-07 05:17:00,35.2,33.7,29.87,ESE,119,4.0,4.5,94,0.00,,CLR,0.00,VWS V14.01,2013-03-07 13:17:00,
2013-03-07 05:23:00,35.8,34.5,29.87,ESE,119,0.0,0.0,95,0.00,,CLR,0.00,VWS V14.01,2013-03-07 13:23:00,
2013-03-07 05:28:00,36.0,34.7,29.87,ESE,119,3.6,4.0,95,0.00,,CLR,0.00,VWS V14.01,2013-03-07 13:28:00,
2013-03-07 05:34:00,36.3,35.3,29.87,ESE,119,2.7,3.1,96,0.00,,CLR,0.00,VWS V14.01,2013-03-07 13:34:00,
2013-03-07 05:39:00,36.5,35.5,29.87,ESE,119,3.1,3.6,96,0.00,,CLR,0.00,VWS V14.01,2013-03-07 13:39:00,
2013-03-07 05:44:00,36.3,35.3,29.87,ESE,119,3.1,4.0,96,0.00,,CLR,0.00,VWS V14.01,2013-03-07 13:44:00,
2013-03-07 05:50:00,36.7,35.7,29.87,ESE,119,0.0,3.6,96,0.00,,CLR,0.00,VWS V14.01,2013-03-07 13:50:00,
2013-03-07 05:57:00,36.9,35.8,29.87,ESE,119,0.0,3.1,96,0.00,,CLR,0.00,VWS V14.01,2013-03-07 13:57:00,
2013-03-07 06:02:00,36.7,35.7,29.87,ESE,119,0.0,0.0,96,0.00,,CLR,0.00,VWS V14.01,2013-03-07 14:02:00,
2013-03-07 06:07:00,36.7,35.7,29.87,ESE,119,3.1,3.6,96,0.00,,CLR,0.00,VWS V14.01,2013-03-07 14:07:00,
2013-03-07 06:12:00,35.6,34.6,29.87,ESE,119,3.1,3.6,96,0.00,,CLR,0.00,VWS V14.01,2013-03-07 14:12:00,
2013-03-07 06:17:00,36.0,34.9,29.87,ESE,119,3.6,3.6,96,0.00,,CLR,0.00,VWS V14.01,2013-03-07 14:17:00,
2013-03-07 06:22:00,36.1,35.1,29.87,ESE,120,3.6,4.9,96,0.00,,CLR,0.00,VWS V14.01,2013-03-07 14:22:00,
2013-03-07 06:28:00,36.1,35.1,29.87,ESE,119,3.1,3.1,96,0.00,,CLR,0.00,VWS V14.01,2013-03-07 14:28:00,
2013-03-07 06:33:00,36.3,35.3,29.87,ESE,119,3.1,3.1,96,0.00,,CLR,0.00,VWS V14.01,2013-03-07 14:33:00,
2013-03-07 06:39:00,36.3,35.3,29.87,ESE,119,0.0,0.0,96,0.00,,CLR,0.00,VWS V14.01,2013-03-07 14:39:00,
2013-03-07 06:44:00,36.1,35.1,29.87,ESE,119,3.6,3.6,96,0.00,,CLR,0.00,VWS V14.01,2013-03-07 14:44:00,
2013-03-07 06:50:00,36.3,35.3,29.87,ESE,119,0.0,0.0,96,0.00,,CLR,0.00,VWS V14.01,2013-03-07 14:50:00,
2013-03-07 06:55:00,36.7,35.7,29.87,ESE,119,2.7,3.1,96,0.00,,CLR,0.00,VWS V14.01,2013-03-07 14:55:00,
2013-03-07 07:00:00,37.0,36.0,29.87,ESE,120,0.0,0.0,96,0.00,,CLR,0.00,VWS V14.01,2013-03-07 15:00:00,
2013-03-07 07:05:00,37.4,36.6,29.87,ESE,119,0.0,0.0,97,0.00,,SCT050,0.00,VWS V14.01,2013-03-07 15:05:00,
2013-03-07 07:10:00,37.6,36.8,29.87,ESE,119,0.0,0.0,97,0.00,,SCT050,0.00,VWS V14.01,2013-03-07 15:10:00,
2013-03-07 07:15:00,37.6,36.8,29.87,ESE,119,0.0,0.0,97,0.00,,SCT050,0.00,VWS V14.01,2013-03-07 15:15:00,
2013-03-07 07:21:00,37.9,37.2,29.87,ESE,119,0.0,0.0,97,0.00,,SCT050,0.00,VWS V14.01,2013-03-07 15:21:00,
2013-03-07 07:26:00,38.1,37.3,29.87,ESE,119,0.0,0.0,97,0.00,,SCT050,0.00,VWS V14.01,2013-03-07 15:26:00,
2013-03-07 07:31:00,38.5,37.7,29.87,ESE,118,0.0,0.0,97,0.00,,SCT050,0.00,VWS V14.01,2013-03-07 15:31:00,
2013-03-07 07:36:00,38.7,37.9,29.87,ESE,119,0.0,0.0,97,0.00,,SCT050,0.00,VWS V14.01,2013-03-07 15:36:00,
2013-03-07 07:41:00,39.0,38.2,29.87,ESE,119,0.0,0.0,97,0.00,,SCT050,0.00,VWS V14.01,2013-03-07 15:41:00,
2013-03-07 07:46:00,39.4,38.6,29.87,ESE,119,0.0,0.0,97,0.00,,SCT050,0.00,VWS V14.01,2013-03-07 15:46:00,
2013-03-07 07:51:00,39.4,38.6,29.87,ESE,119,0.0,0.0,97,0.00,,SCT050,0.00,VWS V14.01,2013-03-07 15:51:00,
2013-03-07 07:57:00,39.6,38.5,29.87,ESE,119,0.0,0.0,96,0.00,,SCT050,0.00,VWS V14.01,2013-03-07 15:57:00,
2013-03-07 08:02:00,39.7,38.7,29.87,ESE,119,0.0,0.0,96,0.00,,CLR,0.00,VWS V14.01,2013-03-07 16:02:00,
2013-03-07 08:08:00,40.3,39.2,29.87,ESE,119,0.0,0.0,96,0.00,,CLR,0.00,VWS V14.01,2013-03-07 16:08:00,
2013-03-07 08:13:00,40.8,39.8,29.87,ESE,120,0.0,0.0,96,0.00,,CLR,0.00,VWS V14.01,2013-03-07 16:13:00,
2013-03-07 08:18:00,41.2,40.1,29.87,ESE,119,0.0,0.0,96,0.00,,CLR,0.00,VWS V14.01,2013-03-07 16:18:00,
2013-03-07 08:24:00,41.7,40.4,29.87,ESE,119,0.0,0.0,95,0.00,,CLR,0.00,VWS V14.01,2013-03-07 16:24:00,
2013-03-07 08:29:00,42.1,40.8,29.87,ESE,119,0.0,0.0,95,0.00,,CLR,0.00,VWS V14.01,2013-03-07 16:29:00,
2013-03-07 08:34:00,42.3,40.7,29.87,ESE,119,0.0,0.0,94,0.00,,CLR,0.00,VWS V14.01,2013-03-07 16:34:00,
2013-03-07 08:39:00,42.6,41.0,29.87,ESE,119,0.0,0.0,94,0.00,,CLR,0.00,VWS V14.01,2013-03-07 16:39:00,
2013-03-07 08:45:00,43.2,41.0,29.87,ESE,120,0.0,0.0,92,0.00,,CLR,0.00,VWS V14.01,2013-03-07 16:45:00,
2013-03-07 08:51:00,44.1,41.9,29.87,ESE,119,0.0,0.0,92,0.00,,CLR,0.00,VWS V14.01,2013-03-07 16:51:00,
2013-03-07 08:56:00,44.8,42.6,29.87,ESE,119,0.0,0.0,92,0.00,,CLR,0.00,VWS V14.01,2013-03-07 16:56:00,
2013-03-07 09:02:00,45.3,43.1,29.87,ESE,119,0.0,0.0,92,0.00,,CLR,0.00,VWS V14.01,2013-03-07 17:02:00,
2013-03-07 09:07:00,45.7,43.5,29.87,ESE,119,0.0,0.0,92,0.00,,CLR,0.00,VWS V14.01,2013-03-07 17:07:00,
2013-03-07 09:12:00,46.0,43.8,29.87,ESE,119,3.6,4.0,92,0.00,,CLR,0.00,VWS V14.01,2013-03-07 17:12:00,
2013-03-07 09:17:00,46.6,44.4,29.87,ESE,119,0.0,3.1,92,0.00,,CLR,0.00,VWS V14.01,2013-03-07 17:17:00,
2013-03-07 09:22:00,47.1,44.9,29.87,ESE,119,3.1,4.0,92,0.00,,CLR,0.00,VWS V14.01,2013-03-07 17:22:00,
2013-03-07 09:28:00,47.8,45.6,29.87,ESE,119,0.0,3.6,92,0.00,,CLR,0.00,VWS V14.01,2013-03-07 17:28:00,
2013-03-07 09:34:00,48.4,45.9,29.84,ESE,119,0.0,3.6,91,0.00,,CLR,0.00,VWS V14.01,2013-03-07 17:34:00,
2013-03-07 09:39:00,48.7,45.3,29.84,ESE,120,3.1,3.1,88,0.00,,CLR,0.00,VWS V14.01,2013-03-07 17:39:00,
2013-03-07 09:44:00,49.6,45.9,29.84,ESE,119,3.6,4.5,87,0.00,,CLR,0.00,VWS V14.01,2013-03-07 17:44:00,
2013-03-07 09:50:00,50.2,45.8,29.84,ESE,119,0.0,3.6,85,0.00,,CLR,0.00,VWS V14.01,2013-03-07 17:50:00,
2013-03-07 09:55:00,50.2,38.5,29.84,ESE,119,2.7,4.9,64,0.00,,CLR,0.00,VWS V14.01,2013-03-07 17:55:00,
2013-03-07 10:00:00,51.3,41.5,29.84,WSW,244,3.1,4.0,69,0.00,,CLR,0.00,VWS V14.01,2013-03-07 18:00:00,
2013-03-07 10:05:00,51.8,41.6,29.84,WNW,297,5.8,7.8,68,0.00,,CLR,0.00,VWS V14.01,2013-03-07 18:05:00,
2013-03-07 10:10:00,51.6,36.5,29.84,NW,313,4.5,6.3,56,0.00,,CLR,0.00,VWS V14.01,2013-03-07 18:10:00,
2013-03-07 10:15:00,51.6,33.6,29.84,WNW,300,5.8,6.7,50,0.00,,CLR,0.00,VWS V14.01,2013-03-07 18:15:00,
2013-03-07 10:21:00,51.8,32.8,29.84,NW,318,4.0,5.8,48,0.00,,CLR,0.00,VWS V14.01,2013-03-07 18:21:00,
2013-03-07 10:26:00,52.2,34.6,29.84,NW,314,5.4,5.8,51,0.00,,CLR,0.00,VWS V14.01,2013-03-07 18:26:00,
2013-03-07 10:31:00,52.5,34.9,29.84,NW,320,5.8,6.9,51,0.00,,CLR,0.00,VWS V14.01,2013-03-07 18:31:00,
2013-03-07 10:36:00,52.7,33.6,29.84,NW,324,5.4,5.4,48,0.00,,CLR,0.00,VWS V14.01,2013-03-07 18:36:00,
2013-03-07 10:41:00,53.1,34.4,29.84,West,260,5.4,6.7,49,0.00,,CLR,0.00,VWS V14.01,2013-03-07 18:41:00,
2013-03-07 10:46:00,53.2,34.6,29.84,West,260,6.3,10.1,49,0.00,,CLR,0.00,VWS V14.01,2013-03-07 18:46:00,
2013-03-07 10:53:00,53.2,33.0,29.84,WSW,243,5.8,8.3,46,0.00,,CLR,0.00,VWS V14.01,2013-03-07 18:53:00,
2013-03-07 10:58:00,53.2,33.0,29.84,NNW,331,7.8,8.3,46,0.00,,CLR,0.00,VWS V14.01,2013-03-07 18:58:00,
2013-03-07 11:03:00,53.2,31.3,29.84,West,273,7.8,8.3,43,0.00,,CLR,0.00,VWS V14.01,2013-03-07 19:03:00,
2013-03-07 11:08:00,53.4,32.1,29.84,West,278,4.5,5.4,44,0.00,,CLR,0.00,VWS V14.01,2013-03-07 19:08:00,
2013-03-07 11:13:00,54.0,32.6,29.84,West,265,6.3,9.6,44,0.00,,CLR,0.00,VWS V14.01,2013-03-07 19:13:00,
2013-03-07 11:18:00,54.1,33.3,29.87,West,276,6.9,9.6,45,0.00,,CLR,0.00,VWS V14.01,2013-03-07 19:18:00,
2013-03-07 11:24:00,54.1,33.3,29.87,WNW,283,10.1,10.1,45,0.00,,CLR,0.00,VWS V14.01,2013-03-07 19:24:00,
2013-03-07 11:30:00,54.3,33.5,29.87,SSW,212,5.8,6.7,45,0.00,,CLR,0.00,VWS V14.01,2013-03-07 19:30:00,
2013-03-07 11:35:00,54.3,34.0,29.84,West,268,6.9,11.0,46,0.00,,CLR,0.00,VWS V14.01,2013-03-07 19:35:00,
2013-03-07 11:40:00,54.3,34.0,29.84,SW,222,6.3,6.9,46,0.00,,CLR,0.00,VWS V14.01,2013-03-07 19:40:00,
2013-03-07 11:45:00,54.7,34.9,29.84,West,280,8.3,8.7,47,0.00,,CLR,0.00,VWS V14.01,2013-03-07 19:45:00,
2013-03-07 11:50:00,54.9,34.5,29.84,WNW,300,5.4,6.9,46,0.00,,CLR,0.00,VWS V14.01,2013-03-07 19:50:00,
2013-03-07 11:55:00,53.8,34.6,29.84,NW,314,7.8,8.3,48,0.00,,CLR,0.00,VWS V14.01,2013-03-07 19:55:00,
2013-03-07 12:00:00,54.3,35.6,29.84,WNW,303,5.8,7.8,49,0.00,,CLR,0.00,VWS V14.01,2013-03-07 20:00:00,
2013-03-07 12:05:00,54.7,34.9,29.84,West,271,10.1,10.5,47,0.00,,CLR,0.00,VWS V14.01,2013-03-07 20:05:00,
2013-03-07 12:10:00,54.5,35.8,29.84,West,281,9.2,10.1,49,0.00,,CLR,0.00,VWS V14.01,2013-03-07 20:10:00,
2013-03-07 12:15:00,54.7,34.9,29.84,NW,315,8.7,8.7,47,0.00,,CLR,0.00,VWS V14.01,2013-03-07 20:15:00,
2013-03-07 12:21:00,54.5,34.7,29.84,NW,321,4.5,7.8,47,0.00,,CLR,0.00,VWS V14.01,2013-03-07 20:21:00,
2013-03-07 12:26:00,54.9,35.0,29.84,West,281,6.9,8.7,47,0.00,,CLR,0.00,VWS V14.01,2013-03-07 20:26:00,
2013-03-07 12:31:00,55.6,35.2,29.84,West,279,6.3,8.7,46,0.00,,CLR,0.00,VWS V14.01,2013-03-07 20:31:00,
2013-03-07 12:36:00,55.9,34.4,29.84,West,269,7.4,7.4,44,0.00,,CLR,0.00,VWS V14.01,2013-03-07 20:36:00,
2013-03-07 12:41:00,56.3,34.1,29.84,WNW,287,5.8,6.7,43,0.00,,CLR,0.00,VWS V14.01,2013-03-07 20:41:00,
2013-03-07 12:46:00,56.7,33.8,29.84,WSW,255,5.4,6.9,42,0.00,,CLR,0.00,VWS V14.01,2013-03-07 20:46:00,
2013-03-07 12:51:00,57.2,34.3,29.84,WNW,288,5.8,7.4,42,0.00,,CLR,0.00,VWS V14.01,2013-03-07 20:51:00,
2013-03-07 12:56:00,57.0,31.7,29.84,SW,228,4.9,7.4,38,0.00,,CLR,0.00,VWS V14.01,2013-03-07 20:56:00,
2013-03-07 13:01:00,56.8,31.5,29.84,SW,217,8.7,8.7,38,0.00,,CLR,0.00,VWS V14.01,2013-03-07 21:01:00,
2013-03-07 13:06:00,57.2,31.8,29.84,SE,143,2.7,5.8,38,0.00,,CLR,0.00,VWS V14.01,2013-03-07 21:06:00,
2013-03-07 13:11:00,57.9,32.5,29.84,WSW,245,0.0,7.4,38,0.00,,CLR,0.00,VWS V14.01,2013-03-07 21:11:00,
2013-03-07 13:16:00,57.9,31.8,29.81,SSW,210,8.3,9.2,37,0.00,,CLR,0.00,VWS V14.01,2013-03-07 21:16:00,
2013-03-07 13:22:00,57.7,31.0,29.81,South,171,4.5,4.5,36,0.00,,CLR,0.00,VWS V14.01,2013-03-07 21:22:00,
2013-03-07 13:27:00,58.1,31.3,29.81,West,277,5.4,7.8,36,0.00,,CLR,0.00,VWS V14.01,2013-03-07 21:27:00,
2013-03-07 13:33:00,58.8,31.2,29.81,West,277,8.7,11.6,35,0.00,,CLR,0.00,VWS V14.01,2013-03-07 21:33:00,
2013-03-07 13:38:00,58.5,30.2,29.81,NW,307,2.7,3.1,34,0.00,,CLR,0.00,VWS V14.01,2013-03-07 21:38:00,
2013-03-07 13:43:00,57.6,30.1,29.81,South,187,4.9,7.4,35,0.00,,CLR,0.00,VWS V14.01,2013-03-07 21:43:00,
2013-03-07 13:49:00,57.9,30.5,29.81,West,262,4.5,5.8,35,0.00,,CLR,0.00,VWS V14.01,2013-03-07 21:49:00,
2013-03-07 13:54:00,58.1,29.9,29.81,NW,309,8.7,11.0,34,0.00,,CLR,0.00,VWS V14.01,2013-03-07 21:54:00,
2013-03-07 13:59:00,57.9,30.5,29.81,WNW,294,5.4,7.8,35,0.00,,CLR,0.00,VWS V14.01,2013-03-07 21:59:00,
2013-03-07 14:04:00,57.2,29.1,29.81,SW,227,4.5,8.7,34,0.00,,CLR,0.00,VWS V14.01,2013-03-07 22:04:00,
2013-03-07 14:09:00,57.9,30.5,29.81,NW,322,0.0,5.8,35,0.00,,CLR,0.00,VWS V14.01,2013-03-07 22:09:00,
2013-03-07 14:14:00,57.7,30.3,29.81,WNW,295,7.8,7.8,35,0.00,,CLR,0.00,VWS V14.01,2013-03-07 22:14:00,
2013-03-07 14:20:00,58.1,29.9,29.81,WNW,286,8.3,11.6,34,0.00,,CLR,0.00,VWS V14.01,2013-03-07 22:20:00,
2013-03-07 14:25:00,56.7,29.3,29.81,SSW,210,9.6,12.1,35,0.00,,CLR,0.00,VWS V14.01,2013-03-07 22:25:00,
2013-03-07 14:31:00,56.7,29.3,29.81,SW,224,3.1,4.0,35,0.00,,CLR,0.00,VWS V14.01,2013-03-07 22:31:00,
2013-03-07 14:37:00,57.2,29.8,29.81,West,275,2.7,6.7,35,0.00,,CLR,0.00,VWS V14.01,2013-03-07 22:37:00,
2013-03-07 14:43:00,57.6,30.1,29.81,SW,235,4.9,8.3,35,0.00,,CLR,0.00,VWS V14.01,2013-03-07 22:43:00,
2013-03-07 14:48:00,57.6,30.1,29.81,WNW,286,8.3,11.0,35,0.00,,CLR,0.00,VWS V14.01,2013-03-07 22:48:00,
2013-03-07 14:53:00,57.4,30.0,29.81,West,259,6.9,6.9,35,0.00,,CLR,0.00,VWS V14.01,2013-03-07 22:53:00,
2013-03-07 14:58:00,56.5,29.2,29.81,SW,220,4.0,6.3,35,0.00,,CLR,0.00,VWS V14.01,2013-03-07 22:58:00,
2013-03-07 15:03:00,56.5,29.2,29.81,WSW,237,8.3,11.0,35,0.00,,SCT043,0.00,VWS V14.01,2013-03-07 23:03:00,
2013-03-07 15:08:00,56.5,29.2,29.81,WNW,286,6.7,7.8,35,0.00,,SCT043,0.00,VWS V14.01,2013-03-07 23:08:00,
2013-03-07 15:13:00,56.8,29.5,29.81,WSW,253,5.4,6.9,35,0.00,,SCT043,0.00,VWS V14.01,2013-03-07 23:13:00,
2013-03-07 15:18:00,56.8,29.5,29.81,West,272,7.8,9.2,35,0.00,,SCT043,0.00,VWS V14.01,2013-03-07 23:18:00,
2013-03-07 15:24:00,57.0,29.7,29.81,West,271,0.0,3.1,35,0.00,,SCT043,0.00,VWS V14.01,2013-03-07 23:24:00,
2013-03-07 15:29:00,56.8,29.5,29.81,West,271,0.0,4.0,35,0.00,,SCT043,0.00,VWS V14.01,2013-03-07 23:29:00,
2013-03-07 15:34:00,57.2,29.8,29.81,WSW,246,2.7,6.3,35,0.00,,SCT043,0.00,VWS V14.01,2013-03-07 23:34:00,
2013-03-07 15:39:00,57.0,29.7,29.81,NW,308,3.1,5.4,35,0.00,,SCT043,0.00,VWS V14.01,2013-03-07 23:39:00,
2013-03-07 15:44:00,56.7,29.3,29.81,West,277,4.9,5.4,35,0.00,,SCT043,0.00,VWS V14.01,2013-03-07 23:44:00,
2013-03-07 15:49:00,56.8,29.5,29.81,West,278,4.0,6.9,35,0.00,,SCT043,0.00,VWS V14.01,2013-03-07 23:49:00,
2013-03-07 15:54:00,57.0,29.7,29.81,West,273,0.0,4.9,35,0.00,,SCT043,0.00,VWS V14.01,2013-03-07 23:54:00,
2013-03-07 15:59:00,56.7,29.3,29.81,SSW,200,4.0,5.8,35,0.00,,SCT043,0.00,VWS V14.01,2013-03-07 23:59:00,
2013-03-07 16:04:00,56.3,29.0,29.81,SSW,194,3.6,4.0,35,0.00,,SCT050,0.00,VWS V14.01,2013-03-08 00:04:00,
2013-03-07 16:09:00,56.7,30.0,29.81,SW,230,2.7,5.4,36,0.00,,SCT050,0.00,VWS V14.01,2013-03-08 00:09:00,
2013-03-07 16:14:00,56.7,29.3,29.81,SSW,210,4.9,7.8,35,0.00,,SCT050,0.00,VWS V14.01,2013-03-08 00:14:00,
2013-03-07 16:19:00,56.3,29.7,29.81,SW,217,4.9,4.9,36,0.00,,SCT050,0.00,VWS V14.01,2013-03-08 00:19:00,
2013-03-07 16:25:00,55.9,28.7,29.81,SW,218,2.7,3.1,35,0.00,,SCT050,0.00,VWS V14.01,2013-03-08 00:25:00,
2013-03-07 16:30:00,55.8,29.2,29.81,SW,218,3.1,4.5,36,0.00,,SCT050,0.00,VWS V14.01,2013-03-08 00:30:00,
2013-03-07 16:35:00,55.4,28.9,29.81,SW,217,0.0,0.0,36,0.00,,SCT050,0.00,VWS V14.01,2013-03-08 00:35:00,
2013-03-07 16:40:00,54.9,29.1,29.81,SW,218,0.0,0.0,37,0.00,,SCT050,0.00,VWS V14.01,2013-03-08 00:40:00,
2013-03-07 16:45:00,54.9,29.1,29.81,SW,217,0.0,0.0,37,0.00,,SCT050,0.00,VWS V14.01,2013-03-08 00:45:00,
2013-03-07 16:51:00,54.7,30.2,29.81,SW,217,0.0,0.0,39,0.00,,SCT050,0.00,VWS V14.01,2013-03-08 00:51:00,
2013-03-07 16:56:00,54.3,29.9,29.81,SW,217,0.0,0.0,39,0.00,,SCT050,0.00,VWS V14.01,2013-03-08 00:56:00,
2013-03-07 17:01:00,51.8,31.1,29.81,East,93,13.4,15.9,45,0.00,,SCT050,0.00,VWS V14.01,2013-03-08 01:01:00,
2013-03-07 17:06:00,50.9,31.9,29.81,ESE,106,13.9,16.3,48,0.00,,FEW047,0.00,VWS V14.01,2013-03-08 01:06:00,
2013-03-07 17:11:00,50.2,32.3,29.81,ESE,107,11.0,13.0,50,0.00,,FEW047,0.00,VWS V14.01,2013-03-08 01:11:00,
2013-03-07 17:16:00,49.8,33.4,29.81,East,99,12.5,14.8,53,0.00,,FEW047,0.00,VWS V14.01,2013-03-08 01:16:00,
2013-03-07 17:21:00,49.3,33.4,29.81,East,81,10.1,14.8,54,0.00,,FEW047,0.00,VWS V14.01,2013-03-08 01:21:00,
2013-03-07 17:27:00,48.9,35.7,29.81,ESE,107,13.4,13.4,60,0.00,,FEW047,0.00,VWS V14.01,2013-03-08 01:27:00,
2013-03-07 17:32:00,48.6,36.2,29.81,East,93,9.2,12.1,62,0.00,,FEW047,0.00,VWS V14.01,2013-03-08 01:32:00,
2013-03-07 17:37:00,48.2,36.6,29.81,ENE,75,10.1,14.3,64,0.00,,FEW047,0.00,VWS V14.01,2013-03-08 01:37:00,
2013-03-07 17:42:00,48.0,37.6,29.81,ENE,78,9.2,10.1,67,0.00,,FEW047,0.00,VWS V14.01,2013-03-08 01:42:00,
2013-03-07 17:47:00,48.0,37.6,29.81,East,82,7.4,11.6,67,0.00,,FEW047,0.00,VWS V14.01,2013-03-08 01:47:00,
2013-03-07 17:52:00,47.7,38.4,29.81,East,96,6.3,9.2,70,0.00,,FEW047,0.00,VWS V14.01,2013-03-08 01:52:00,
2013-03-07 17:57:00,47.5,38.9,29.81,East,98,6.9,7.4,72,0.00,,FEW047,0.00,VWS V14.01,2013-03-08 01:57:00,
2013-03-07 18:02:00,47.3,39.1,29.81,East,94,4.5,7.8,73,0.00,,SCT080,0.00,VWS V14.01,2013-03-08 02:02:00,
2013-03-07 18:07:00,47.3,39.8,29.81,East,101,5.4,6.9,75,0.00,,SCT080,0.00,VWS V14.01,2013-03-08 02:07:00,
2013-03-07 18:12:00,47.3,40.1,29.81,East,80,6.7,7.4,76,0.00,,SCT080,0.00,VWS V14.01,2013-03-08 02:12:00,
2013-03-07 18:17:00,47.1,40.6,29.81,East,96,6.3,6.3,78,0.00,,SCT080,0.00,VWS V14.01,2013-03-08 02:17:00,
2013-03-07 18:23:00,46.9,40.5,29.81,East,80,5.8,5.8,78,0.00,,SCT080,0.00,VWS V14.01,2013-03-08 02:23:00,
2013-03-07 18:29:00,47.3,40.8,29.81,ENE,73,0.0,3.6,78,0.00,,SCT080,0.00,VWS V14.01,2013-03-08 02:29:00,
2013-03-07 18:34:00,47.5,41.0,29.81,ENE,59,0.0,3.1,78,0.00,,SCT080,0.00,VWS V14.01,2013-03-08 02:34:00,
2013-03-07 18:39:00,47.5,41.0,29.81,ENE,59,0.0,4.0,78,0.00,,SCT080,0.00,VWS V14.01,2013-03-08 02:39:00,
2013-03-07 18:44:00,47.5,40.6,29.81,ENE,58,0.0,0.0,77,0.00,,SCT080,0.00,VWS V14.01,2013-03-08 02:44:00,
2013-03-07 18:49:00,47.3,40.8,29.81,ENE,59,0.0,0.0,78,0.00,,SCT080,0.00,VWS V14.01,2013-03-08 02:49:00,
2013-03-07 18:54:00,47.1,40.3,29.81,East,100,5.4,5.4,77,0.00,,SCT080,0.00,VWS V14.01,2013-03-08 02:54:00,
2013-03-07 18:59:00,46.9,40.5,29.81,ENE,71,3.6,7.8,78,0.00,,SCT080,0.00,VWS V14.01,2013-03-08 02:59:00,
2013-03-07 19:04:00,46.8,40.9,29.81,ENE,76,6.3,6.9,80,0.00,,BKN100,0.00,VWS V14.01,2013-03-08 03:04:00,
2013-03-07 19:09:00,46.6,41.1,29.81,ENE,67,6.3,7.4,81,0.00,,BKN100,0.00,VWS V14.01,2013-03-08 03:09:00,
2013-03-07 19:14:00,46.4,40.6,29.81,ENE,69,0.0,0.0,80,0.00,,BKN100,0.00,VWS V14.01,2013-03-08 03:14:00,
2013-03-07 19:19:00,46.6,40.4,29.81,NE,39,0.0,4.5,79,0.00,,BKN100,0.00,VWS V14.01,2013-03-08 03:19:00,
2013-03-07 19:25:00,46.8,40.6,29.81,ENE,67,3.6,4.0,79,0.00,,BKN100,0.00,VWS V14.01,2013-03-08 03:25:00,
2013-03-07 19:30:00,46.9,40.8,29.81,ENE,67,0.0,0.0,79,0.00,,BKN100,0.00,VWS V14.01,2013-03-08 03:30:00,
2013-03-07 19:35:00,46.9,40.8,29.81,NNW,328,0.0,5.4,79,0.00,,BKN100,0.00,VWS V14.01,2013-03-08 03:35:00,
2013-03-07 19:40:00,46.9,40.5,29.81,NNW,328,0.0,0.0,78,0.00,,BKN100,0.00,VWS V14.01,2013-03-08 03:40:00,
2013-03-07 19:45:00,46.9,40.5,29.81,NNW,338,0.0,0.0,78,0.00,,BKN100,0.00,VWS V14.01,2013-03-08 03:45:00,
2013-03-07 19:50:00,46.8,40.6,29.81,ENE,60,0.0,4.9,79,0.00,,BKN100,0.00,VWS V14.01,2013-03-08 03:50:00,
2013-03-07 19:55:00,46.8,40.3,29.81,ENE,65,0.0,3.6,78,0.00,,BKN100,0.00,VWS V14.01,2013-03-08 03:55:00,
2013-03-07 20:00:00,46.9,40.5,29.78,ENE,78,0.0,0.0,78,0.00,,BKN100,0.00,VWS V14.01,2013-03-08 04:00:00,
2013-03-07 20:05:00,46.8,40.3,29.78,ENE,77,0.0,0.0,78,0.00,,BKN100,0.00,VWS V14.01,2013-03-08 04:05:00,
2013-03-07 20:10:00,46.8,40.3,29.78,ENE,77,0.0,0.0,78,0.00,,BKN100,0.00,VWS V14.01,2013-03-08 04:10:00,
2013-03-07 20:15:00,46.4,40.2,29.78,ENE,77,2.7,3.1,79,0.00,,BKN100,0.00,VWS V14.01,2013-03-08 04:15:00,
2013-03-07 20:20:00,46.2,40.1,29.78,East,82,0.0,0.0,79,0.00,,BKN100,0.00,VWS V14.01,2013-03-08 04:20:00,
2013-03-07 20:26:00,46.2,40.1,29.78,East,82,0.0,0.0,79,0.00,,BKN100,0.00,VWS V14.01,2013-03-08 04:26:00,
2013-03-07 20:31:00,46.0,39.9,29.78,East,81,0.0,0.0,79,0.00,,BKN100,0.00,VWS V14.01,2013-03-08 04:31:00,
2013-03-07 20:36:00,45.9,40.0,29.78,East,82,0.0,0.0,80,0.00,,BKN100,0.00,VWS V14.01,2013-03-08 04:36:00,
2013-03-07 20:41:00,45.7,39.9,29.78,East,82,0.0,0.0,80,0.00,,BKN100,0.00,VWS V14.01,2013-03-08 04:41:00,
2013-03-07 20:46:00,45.7,40.2,29.78,East,82,0.0,0.0,81,0.00,,BKN100,0.00,VWS V14.01,2013-03-08 04:46:00,
2013-03-07 20:52:00,45.5,40.3,29.78,East,82,0.0,0.0,82,0.00,,BKN100,0.00,VWS V14.01,2013-03-08 04:52:00,
2013-03-07 20:57:00,45.3,40.2,29.78,East,82,0.0,0.0,82,0.00,,BKN100,0.00,VWS V14.01,2013-03-08 04:57:00,
2013-03-07 21:00:00,45.5,40.3,29.78,East,83,0.0,0.0,82,0.00,,BKN100,0.00,VWS V14.01,2013-03-08 05:00:00,
2013-03-07 21:01:00,45.5,40.3,29.78,East,82,0.0,0.0,82,0.00,,BKN100,0.00,VWS V14.01,2013-03-08 05:01:00,
2013-03-07 21:02:00,45.3,40.2,29.78,East,82,0.0,0.0,82,0.00,,BKN100,0.00,VWS V14.01,2013-03-08 05:02:00,
2013-03-07 21:04:00,45.5,40.3,29.78,East,82,0.0,0.0,82,0.00,,BKN100,0.00,VWS V14.01,2013-03-08 05:04:00,
2013-03-07 21:09:00,45.3,40.2,29.78,East,82,0.0,0.0,82,0.00,,BKN100,0.00,VWS V14.01,2013-03-08 05:09:00,
2013-03-07 21:14:00,45.3,40.2,29.78,East,82,0.0,3.6,82,0.00,,BKN100,0.00,VWS V14.01,2013-03-08 05:14:00,
2013-03-07 21:19:00,45.1,39.7,29.78,East,82,0.0,3.1,81,0.00,,BKN100,0.00,VWS V14.01,2013-03-08 05:19:00,
2013-03-07 21:24:00,44.6,39.1,29.78,East,82,0.0,0.0,81,0.00,,BKN100,0.00,VWS V14.01,2013-03-08 05:24:00,
2013-03-07 21:30:00,44.2,39.4,29.78,East,82,0.0,0.0,83,0.00,,BKN100,0.00,VWS V14.01,2013-03-08 05:30:00,
2013-03-07 21:35:00,43.7,38.9,29.78,East,82,0.0,0.0,83,0.00,,BKN100,0.00,VWS V14.01,2013-03-08 05:35:00,
2013-03-07 21:40:00,43.3,38.8,29.78,East,82,0.0,0.0,84,0.00,,BKN100,0.00,VWS V14.01,2013-03-08 05:40:00,
2013-03-07 21:45:00,43.0,38.8,29.78,East,83,0.0,0.0,85,0.00,,BKN100,0.00,VWS V14.01,2013-03-08 05:45:00,
2013-03-07 21:50:00,43.0,39.1,29.78,East,82,0.0,0.0,86,0.00,,BKN100,0.00,VWS V14.01,2013-03-08 05:50:00,
2013-03-07 21:55:00,42.3,38.4,29.78,East,82,3.6,4.0,86,0.00,,BKN100,0.00,VWS V14.01,2013-03-08 05:55:00,
2013-03-07 22:00:00,42.3,38.7,29.78,East,82,0.0,0.0,87,0.00,,BKN100,0.00,VWS V14.01,2013-03-08 06:00:00,
2013-03-07 22:05:00,41.7,38.1,29.78,East,82,0.0,0.0,87,0.00,,BKN100,0.00,VWS V14.01,2013-03-08 06:05:00,
2013-03-07 22:10:00,41.9,38.6,29.78,East,81,0.0,0.0,88,0.00,,BKN100,0.00,VWS V14.01,2013-03-08 06:10:00,
2013-03-07 22:15:00,42.1,39.1,29.78,East,82,0.0,0.0,89,0.00,,BKN100,0.00,VWS V14.01,2013-03-08 06:15:00,
2013-03-07 22:20:00,42.3,39.3,29.78,ENE,69,5.4,5.4,89,0.00,,BKN100,0.00,VWS V14.01,2013-03-08 06:20:00,
2013-03-07 22:25:00,42.4,39.4,29.78,North,356,4.0,4.9,89,0.00,,BKN100,0.00,VWS V14.01,2013-03-08 06:25:00,
2013-03-07 22:31:00,43.2,40.4,29.78,NNW,335,0.0,4.0,90,0.00,,BKN100,0.00,VWS V14.01,2013-03-08 06:31:00,
2013-03-07 22:36:00,42.3,39.0,29.78,NNW,335,0.0,2.7,88,0.00,,BKN100,0.00,VWS V14.01,2013-03-08 06:36:00,
2013-03-07 22:41:00,42.8,39.5,29.78,NNW,335,0.0,0.0,88,0.00,,BKN100,0.00,VWS V14.01,2013-03-08 06:41:00,
2013-03-07 22:46:00,42.4,38.8,29.78,NNW,336,0.0,3.1,87,0.00,,BKN100,0.00,VWS V14.01,2013-03-08 06:46:00,
2013-03-07 22:52:00,42.3,38.7,29.78,NNW,335,0.0,0.0,87,0.00,,BKN100,0.00,VWS V14.01,2013-03-08 06:52:00,
2013-03-07 22:57:00,42.3,38.7,29.78,NNW,336,0.0,0.0,87,0.00,,BKN100,0.00,VWS V14.01,2013-03-08 06:57:00,
2013-03-07 23:02:00,42.4,38.8,29.78,NNW,334,0.0,0.0,87,0.00,,BKN080,0.00,VWS V14.01,2013-03-08 07:02:00,
2013-03-07 23:07:00,42.1,38.8,29.78,NNW,335,0.0,0.0,88,0.00,,BKN080,0.00,VWS V14.01,2013-03-08 07:07:00,
2013-03-07 23:12:00,42.3,39.0,29.78,NNW,335,0.0,0.0,88,0.00,,BKN080,0.00,VWS V14.01,2013-03-08 07:12:00,
2013-03-07 23:17:00,42.1,38.8,29.78,NNW,335,0.0,4.0,88,0.00,,BKN080,0.00,VWS V14.01,2013-03-08 07:17:00,
2013-03-07 23:22:00,42.1,38.8,29.78,NNW,335,0.0,0.0,88,0.00,,BKN080,0.00,VWS V14.01,2013-03-08 07:22:00,
2013-03-07 23:27:00,42.3,39.3,29.78,NNW,335,0.0,0.0,89,0.00,,BKN080,0.00,VWS V14.01,2013-03-08 07:27:00,
2013-03-07 23:32:00,42.4,39.4,29.78,NNW,335,0.0,0.0,89,0.00,,BKN080,0.00,VWS V14.01,2013-03-08 07:32:00,
2013-03-07 23:37:00,42.4,39.4,29.78,NNW,336,0.0,0.0,89,0.00,,BKN080,0.00,VWS V14.01,2013-03-08 07:37:00,
2013-03-07 23:43:00,42.4,39.4,29.78,NNW,335,0.0,0.0,89,0.00,,BKN080,0.00,VWS V14.01,2013-03-08 07:43:00,
2013-03-07 23:48:00,42.3,39.3,29.78,NNW,336,0.0,0.0,89,0.00,,BKN080,0.00,VWS V14.01,2013-03-08 07:48:00,
2013-03-07 23:53:00,42.4,39.4,29.78,NNW,336,0.0,0.0,89,0.00,,BKN080,0.00,VWS V14.01,2013-03-08 07:53:00,
2013-03-07 23:58:00,42.6,39.9,29.78,NNW,335,0.0,0.0,90,0.00,,BKN080,0.00,VWS V14.01,2013-03-08 07:58:00,